Back to catalog

FENGYUN 1C DEB

AliveSSO
NORAD 30156·DEBRIS·🇨🇳 China

Launched May 10, 1999 from Taiyuan Satellite Launch Center

Loading…

Next Passes (next 24 hours)

TLE

FreshSource: Space-Track

Epoch: Sep 14, 2026, 14:50 UTC

1 30156U 99025TM  26257.61855588  .00001019  00000-0  85804-3 0  9997
2 30156  98.9332 214.8360 0195973 242.0002 295.4758 13.81696653984996

Track FENGYUN 1C DEB in real time with AllMySat

Download on the App Store